Time,TemperatureF,DewpointF,PressureIn,WindDirection,WindDirectionDegrees,WindSpeedMPH,WindSpeedGustMPH,Humidity,HourlyPrecipIn,Conditions,Clouds,dailyrainin,SoftwareType,DateUTC
2013-02-04 21:30:00,64.4,42.6,29.91,North,350,0.0,0.0,45,0.00,CLR,,0.00,WeatherDisplay:10.37,2013-02-05 04:30:00,
2013-02-04 21:35:00,39.0,18.4,29.91,SW,234,0.0,0.0,43,0.00,CLR,,0.00,WeatherDisplay:10.37,2013-02-05 04:35:00,
2013-02-04 21:40:00,29.1,11.8,29.91,SSW,202,1.0,4.0,48,0.00,CLR,,0.00,WeatherDisplay:10.37,2013-02-05 04:40:00,
2013-02-04 21:45:00,25.9,8.9,29.91,SW,235,0.0,1.0,48,0.00,CLR,,0.00,WeatherDisplay:10.37,2013-02-05 04:45:00,
2013-02-04 21:50:00,45.9,13.7,29.91,South,171,3.0,7.0,27,0.00,CLR,,0.00,WeatherDisplay:10.37,2013-02-05 04:50:00,
2013-02-04 21:55:00,27.9,12.1,29.91,South,189,0.0,3.0,51,0.00,CLR,,0.00,WeatherDisplay:10.37,2013-02-05 04:55:00,
2013-02-04 22:00:00,37.8,25.5,29.91,WNW,293,3.0,4.0,61,0.00,CLR,,0.00,WeatherDisplay:10.37,2013-02-05 05:00:00,
2013-02-04 22:05:00,36.0,33.6,29.91,SW,218,3.0,12.0,91,0.00,CLR,,0.00,WeatherDisplay:10.37,2013-02-05 05:05:00,
2013-02-04 22:10:00,35.4,34.1,29.91,SSW,206,2.0,8.0,95,0.00,CLR,,0.00,WeatherDisplay:10.37,2013-02-05 05:10:00,
2013-02-04 22:15:00,40.1,34.1,29.91,SSW,209,5.0,10.0,79,0.00,CLR,,0.00,WeatherDisplay:10.37,2013-02-05 05:15:00,
2013-02-04 22:20:00,34.3,33.1,29.91,SW,217,2.0,7.0,95,0.00,CLR,,0.00,WeatherDisplay:10.37,2013-02-05 05:20:00,
2013-02-04 22:25:00,38.3,31.4,29.91,SW,215,3.0,8.0,76,0.00,CLR,,0.00,WeatherDisplay:10.37,2013-02-05 05:25:00,
2013-02-04 22:30:00,35.1,29.8,29.91,SW,226,5.0,12.0,81,0.00,CLR,,0.00,WeatherDisplay:10.37,2013-02-05 05:30:00,
2013-02-04 22:35:00,27.7,25.9,29.91,WSW,239,1.0,3.0,93,0.00,CLR,,0.00,WeatherDisplay:10.37,2013-02-05 05:35:00,
2013-02-04 22:40:00,37.4,27.4,29.91,SW,217,2.0,7.0,67,0.00,CLR,,0.00,WeatherDisplay:10.37,2013-02-05 05:40:00,
2013-02-04 22:45:00,28.9,24.4,29.91,SW,223,0.0,3.0,83,0.00,CLR,,0.00,WeatherDisplay:10.37,2013-02-05 05:45:00,
2013-02-04 22:50:00,51.1,22.9,29.91,SW,234,5.0,7.0,33,0.00,CLR,,0.00,WeatherDisplay:10.37,2013-02-05 05:50:00,
2013-02-04 22:55:00,29.1,20.2,29.91,SSW,211,0.0,8.0,69,0.00,CLR,,0.00,WeatherDisplay:10.37,2013-02-05 05:55:00,
2013-02-04 23:00:00,33.6,21.6,29.91,SSW,213,2.0,7.0,61,0.00,CLR,,0.00,WeatherDisplay:10.37,2013-02-05 06:00:00,
2013-02-04 23:05:00,39.2,18.5,29.91,SW,215,2.0,10.0,43,0.00,CLR,,0.00,WeatherDisplay:10.37,2013-02-05 06:05:00,
2013-02-04 23:10:00,29.5,18.8,29.91,SW,219,0.0,3.0,64,0.00,CLR,,0.00,WeatherDisplay:10.37,2013-02-05 06:10:00,
2013-02-04 23:15:00,59.4,27.1,29.91,ENE,66,2.0,5.0,29,0.00,CLR,,0.00,WeatherDisplay:10.37,2013-02-05 06:15:00,
2013-02-04 23:20:00,28.0,22.1,29.91,North,11,2.0,4.0,78,0.00,CLR,,0.00,WeatherDisplay:10.37,2013-02-05 06:20:00,
2013-02-04 23:25:00,46.2,23.8,29.91,NNW,343,0.0,1.0,41,0.00,CLR,,0.00,WeatherDisplay:10.37,2013-02-05 06:25:00,
2013-02-04 23:30:00,30.6,14.1,29.91,SW,216,0.0,4.0,50,0.00,CLR,,0.00,WeatherDisplay:10.37,2013-02-05 06:30:00,
2013-02-04 23:35:00,29.5,12.6,29.91,WSW,255,1.0,1.0,49,0.00,CLR,,0.00,WeatherDisplay:10.37,2013-02-05 06:35:00,
2013-02-04 23:40:00,57.9,18.2,29.91,WSW,250,3.0,7.0,21,0.00,CLR,,0.00,WeatherDisplay:10.37,2013-02-05 06:40:00,
2013-02-04 23:45:00,30.4,11.0,29.91,WSW,245,0.0,4.0,44,0.00,CLR,,0.00,WeatherDisplay:10.37,2013-02-05 06:45:00,
2013-02-04 23:50:00,55.0,15.8,29.91,WNW,289,6.0,7.0,21,0.00,CLR,,0.00,WeatherDisplay:10.37,2013-02-05 06:50:00,
2013-02-04 23:55:00,33.4,16.3,29.91,WSW,257,0.0,5.0,49,0.00,CLR,,0.00,WeatherDisplay:10.37,2013-02-05 06:55:00,